SL-14 DEB, 45284

Orbit data source: Space-Track

SL-14 DEB, 45284 is space debris in LEO originally from a launch on Thu, 15 Aug 1991 UTC launched from the Plesetsk Missile And Space Complex (PKMTR). Debris objects in space refer to the collection of defunct objects orbiting the Earth. Examples of debris include non-operational satellites, rocket bodies, and fragments generated from explosions, collisions, or faulty payload assembly.

Loading next visibility...
SL-14 DEB details
Identifier
45284, 1991-056W
Orbit
LEO
Last TLE update13 hours ago
Origin
Flag of CISRosgidromet (CIS)
ManufacturerUnknown
MissionSpacecraft
Bus & MotorUnknown
MassUnknown
Launch date (UTC)
1991-08-15 (33 years ago)
Launch vehicleUnknown
Launch site
Plesetsk Missile And Space Complex (PKMTR)
Object type
Payload
Rocket body
Debris
Shape & HBRUnknown
Radar Cross SectionSmall (<0.1 m²)

Expand to show TLE details & history

TLE from 13 hours ago
0 SL-14 DEB
1 45284U 91056W   24338.84609245  .00007120  00000-0  12074-1 0  9997
2 45284  82.5616 132.6063 0127530 248.8374 109.9095 13.41983184233865
Epoch: 2024-12-03T20:18Z
Definitive object data (Epoch: 2024-12-03T20:18:22.387Z)
Latitude-0.00009°
Longitude114.86327°
Altitude1,138.303 km
Speed7.267 km/s
True Right ascension08h 50m 25s
True Declination0° 00' 00"
Sunlit
Object was in daylight at TLE epoch
Visualization TLE readout
Latitude17.33923°
Longitude116.79992°
Altitude1,164.781 km
Speed7.243 km/s
Apparent Right ascension11h 40m 09s
Apparent Declination-24° 32' 09"
Sunlit
Object is in daylight
Visualization observer readout
Local Sidereal Time06:49:21
Azimuth119.534° SE
Elevation-3.381°
Doppler factor1
Orbital elements
Apogee altitude1,194.467 km
Perigee altitude1,003.752 km
Semi-major axis7,477.247 km
Eccentricity0.012753
Inclination82.5616°
RAAN132.6063°
Arg. of periapsis248.8374°
True anomaly111.27599°
Mean anomaly109.9095°
Eccentric anomaly110.5935°
Mean motion3.35684 °/min
BSTAR0.012074
Orbital period107.24 mins
Loading maneuver chart data...
Loading historical data...
Loading historical data...
Loading historical data...
Loading historical data...
Loading historical data...
Loading historical data...
Loading historical data...

SL-14 DEB Visibility forecast

Observer location: undefined°, undefined

Span
Click to sort rows by Start time (UTC) header in descending order
Start Az.
Max El. time (UTC)
Max El. Az.
Max El.
End time (UTC)
End Az.
13 mins2024-12-04 10:43:09.753Z165.727° S2024-12-04 10:49:09.753Z97.578° ESE39.913°2024-12-04 10:56:09.753Z16.438° NNE
10 mins2024-12-04 12:33:09.753Z241.832° WSW2024-12-04 12:38:09.753Z293.293° NW23.945°2024-12-04 12:43:09.753Z341.065° N
12 mins2024-12-04 21:58:09.753Z1.501° NNE2024-12-04 22:04:09.753Z100.25° ESE41.498°2024-12-04 22:10:09.753Z160.342° S
8 mins2024-12-04 23:47:09.753Z317.036° NNW2024-12-04 23:51:09.753Z277.852° WNW19.85°2024-12-04 23:55:09.753Z238.133° WSW
|